TimeHST,TemperatureF,Dew PointF,Humidity,Sea Level PressureIn,VisibilityMPH,Wind Direction,Wind SpeedMPH,Gust SpeedMPH,PrecipitationIn,Events,Conditions,WindDirDegrees,DateUTC
12:53 AM,72.0,64.9,78,30.10,10.0,NE,19.6,-,N/A,,Partly Cloudy,40,2011-12-18 10:53:00
1:15 AM,71.6,66.2,83,30.10,10.0,NE,16.1,-,N/A,,Mostly Cloudy,40,2011-12-18 11:15:00
1:38 AM,71.6,66.2,83,30.10,10.0,NE,17.3,-,N/A,,Mostly Cloudy,50,2011-12-18 11:38:00
1:53 AM,72.0,64.9,78,30.09,10.0,NE,17.3,-,N/A,,Mostly Cloudy,40,2011-12-18 11:53:00
2:53 AM,72.0,64.9,78,30.07,10.0,NE,13.8,-,N/A,,Scattered Clouds,50,2011-12-18 12:53:00
3:53 AM,72.0,63.0,73,30.06,10.0,NE,12.7,-,N/A,,Mostly Cloudy,50,2011-12-18 13:53:00
4:44 AM,73.4,64.4,73,30.06,10.0,NE,17.3,-,N/A,,Mostly Cloudy,40,2011-12-18 14:44:00
4:53 AM,73.0,64.9,76,30.06,10.0,NE,15.0,-,N/A,,Mostly Cloudy,50,2011-12-18 14:53:00
5:17 AM,71.6,64.4,78,30.06,10.0,ENE,13.8,-,N/A,,Mostly Cloudy,60,2011-12-18 15:17:00
5:53 AM,73.0,64.0,73,30.06,10.0,NE,15.0,-,N/A,,Mostly Cloudy,50,2011-12-18 15:53:00
6:12 AM,73.4,64.4,73,30.07,10.0,ENE,16.1,-,0.00,Rain,Light Rain,60,2011-12-18 16:12:00
6:53 AM,73.0,64.9,76,30.08,10.0,ENE,19.6,24.2,0.00,,Mostly Cloudy,60,2011-12-18 16:53:00
7:06 AM,73.4,64.4,73,30.09,10.0,ENE,15.0,-,N/A,,Mostly Cloudy,60,2011-12-18 17:06:00
7:53 AM,73.0,64.9,76,30.09,10.0,NE,16.1,-,N/A,,Scattered Clouds,40,2011-12-18 17:53:00
8:53 AM,75.0,64.9,71,30.11,10.0,NE,17.3,-,N/A,,Partly Cloudy,40,2011-12-18 18:53:00
9:53 AM,75.9,64.9,69,30.13,10.0,NE,15.0,-,N/A,,Scattered Clouds,50,2011-12-18 19:53:00
10:53 AM,75.9,64.0,67,30.12,10.0,NE,19.6,-,N/A,,Mostly Cloudy,50,2011-12-18 20:53:00
11:53 AM,77.0,66.0,69,30.09,10.0,NE,17.3,-,N/A,,Mostly Cloudy,50,2011-12-18 21:53:00
12:44 PM,77.0,64.4,65,30.08,10.0,NE,19.6,24.2,N/A,,Mostly Cloudy,50,2011-12-18 22:44:00
12:53 PM,77.0,66.0,69,30.07,10.0,NE,18.4,-,N/A,,Mostly Cloudy,40,2011-12-18 22:53:00
1:00 PM,77.0,66.2,69,30.07,10.0,NE,17.3,-,N/A,,Mostly Cloudy,50,2011-12-18 23:00:00
1:16 PM,77.0,64.4,65,30.06,10.0,NE,19.6,-,N/A,,Mostly Cloudy,50,2011-12-18 23:16:00
1:53 PM,77.0,64.9,66,30.04,10.0,NE,19.6,-,N/A,,Scattered Clouds,50,2011-12-18 23:53:00
2:53 PM,78.1,64.9,64,30.04,10.0,NE,17.3,-,N/A,,Partly Cloudy,40,2011-12-19 00:53:00
3:53 PM,73.9,66.0,76,30.04,10.0,NE,18.4,27.6,0.02,,Partly Cloudy,50,2011-12-19 01:53:00
4:53 PM,73.0,66.0,79,30.04,10.0,NE,20.7,27.6,0.00,,Mostly Cloudy,50,2011-12-19 02:53:00
5:53 PM,73.0,66.0,79,30.05,10.0,NE,17.3,25.3,N/A,,Mostly Cloudy,50,2011-12-19 03:53:00
6:53 PM,73.0,66.0,79,30.08,10.0,NE,18.4,-,N/A,,Scattered Clouds,50,2011-12-19 04:53:00
7:53 PM,72.0,66.0,81,30.10,10.0,ENE,16.1,21.9,0.00,,Scattered Clouds,60,2011-12-19 05:53:00
8:53 PM,73.0,66.0,79,30.12,10.0,ENE,18.4,21.9,N/A,,Partly Cloudy,60,2011-12-19 06:53:00
9:53 PM,73.0,66.0,79,30.12,10.0,ENE,19.6,27.6,N/A,,Scattered Clouds,60,2011-12-19 07:53:00
10:53 PM,73.9,64.9,73,30.11,10.0,ENE,25.3,28.8,N/A,,Overcast,60,2011-12-19 08:53:00
11:53 PM,73.0,66.0,79,30.10,10.0,ENE,19.6,-,0.00,,Overcast,70,2011-12-19 09:53:00